Weather in Chusovoy

Russia / Perm Krai     58°17′51″N   57°49′09″E
temp.,
°C
wind,
m/s
gust,
m/s
humid.,
%
clouds,
%
prec.,
mm/h
press.,
hPa
HPBL,
m
1 march, mon
mon123:00−16e41191100 0.4 1014564
02:00−17e3992100 0.1 1016442
05:00−19ene279598 0.2 1017333
08:00−20ene239695 0.1 101883
11:00−16ene138682 0.1 1018314
14:00−11se118184 0.0 1017479
17:00−11wnw118592 0.0 1017392
20:00−17s119555 0.0 101520
2 march, tue
tue223:00−18s229856 0.0 101427
02:00−19s269973 0.0 1012127
05:00−18s3109785 0.0 1010288
08:00−17s51293100 0.0 1006426
11:00−16s51293100 0.3 1004481
14:00−12ssw51292100 0.9 1001679
17:00−12ssw51292100 1.6 999650
20:00−12s41194100 0.5 998597
3 march, wed
wed323:00−11s41095100 1.2 997508
02:00−11s3994100 1.0 995416
05:00−10s2596100 1.4 995209
08:00−11ssw119799 0.3 99421
11:00−7wsw139298 0.4 995305
14:00−4wsw2492100 0.1 995447
17:00−3wsw3591100 0.2 996552
20:00−6sw2297100 0.2 99652
4 march, thu
thu423:00−7sw1297100 0.6 99723
02:00−7wnw1197100 0.8 99623
05:00−8wnw2497100 1.4 997123
08:00−10wnw279697 0.4 997240
11:00−10wsw359498 0.4 998326
14:00−7wsw4689100 0.1 998685
17:00−6sw4789100 0.3 999868
20:00−9ssw3995100 0.1 998401
5 march, fri
fri523:00−9s41293100 0.3 996546
02:00−7s51294100 1.1 991894
05:00−4s51394100 2.8 987926
08:00−1sw61395100 1.9 9851152
11:00−4wsw7128696 2.5 9871272
14:00−6wsw71287100 0.4 9911285
17:00−8w71288100 0.9 9961209
20:00−10wsw61391100 0.3 999823